NOAA 16 DEB

Satellite information

Favourite Embed

Satellite Type and Status

DEBRISIN ORBIT

Key statistics

Satellite NOAA 16 DEB at a glance.

Uptime

8996

Days in orbit

Revolutions

≈ 14.4

Per day

Orbit

SSO

Sun Synchronous Orbit

Inclination

98.8

Latest

Satellite identification and parameters

Extended collection of information and parameters for NOAA 16 DEB.

Object identification

Identified? True

Debris? True

Object name: NOAA 16 DEB

International designator: 2000-055RG

Object number (NORAD): 42364

Object ID (CCSDS): 42364

Country: UNITED STATES OF AMERICA (US)

Current information (Y/N): Y

RCS size: SMALL

Orbital parameters

Period: 100.1 minutes

Inclination: 98.7938 deg

SMA: 7141.408 km

Apoapsis: 794.809 km

Periapsis: 731.737 km

RAAN: 227.5968 deg

Eccentricy: 0.0044159

Argument of periapsis: 76.6072 deg

Mean anomaly: 284.0032 deg

Mean motion: 14.38556717 rev/day

Mean motion (dot): 0.00010202 rev/day2

B* drag term: 0.003308 1/REarth

Two-line elements (TLE)

Creation date: May 9, 2025, 2:46 a.m.

Reference frame: TEME

Reference center: EARTH

Epoch: May 8, 2025, 12:16 p.m. UTC

TLE line 0: 0 NOAA 16 DEB

TLE line 1: 1 42364U 00055RG 25128.51113713 .00010202 00000-0 33080-2 0 9990

TLE line 2: 2 42364 98.7938 227.5968 0044159 76.6072 284.0032 14.38556717470596

Live tracking on map

Real-time ground track for satellite NOAA 16 DEB.

In-orbit conjunctions

A list of the most updated potential collisions computed for object NOAA 16 DEB.

Target Orbit TCA Probability of collision Miss distance Type
COSMOS 372 LEO 2025-03-14 12:19:11 0.0002897449 212.0 (m) PAYLOAD
SL-8 R/B LEO 2025-01-19 20:50:24 0.0001005719 254.0 (m) ROCKET BODY
NOAA 17 DEB SSO 2024-09-26 03:16:54 0.0002314632 430.0 (m) DEBRIS
SL-3 R/B LEO 2024-08-25 08:05:33 0.0001055214 551.0 (m) ROCKET BODY

Associated space launch

The NOAA K, L and M POES satellites begin the fifth generation of improved environmental monitoring in support of NOAA missions. The instrument payload has significant improvements and additions/deletions. The instrument changes have effected the spacecraft subsystems and data formats.

NOAA 16 DEB was lifted into orbit during the mission ‘Titan II SLV | NOAA 16’, on board a Titan II SLV space rocket.

The launch took place on Sept. 21, 2000, 10:22 a.m. from Space Launch Complex 4W.

For more information about the launch, click the button.

Launch to space Titan II SLV | NOAA 16
Titan II SLV | NOAA 16

Agency: N/A

Status: Launch Successful

Launch date: Sept. 21, 2000, 10:22 a.m. UTC

Rocket: Titan II SLV

Launch pad: Space Launch Complex 4W

Location: Vandenberg SFB, CA, USA

...

Latest news about this satellite

There are no fresh news available about this satellite. Check back as we update our databases every day.


Newsletter sign-up

Weekly statistics, charts and insights to help you stay on top of the space industry.